Vertical_Velocity
-1 1 0 1 1 -1 1 -1 -1 -0 -0 -1 -2 0 1 -0 -2 -1 -2 -1 -1 -1 -1 0 0 0 0 1 -2 0 1 -3 3 1 -0 1 2 1 1 0 -1 -2 -1
-2 -0 -0 1 0 -1 0 -1 -1 -0 -0 -1 -1 0 2 -0 -0 -1 -2 0 2 1 0 1 -2 2 -2 -2 -2 -2 0 -3 1 -1 -1 1 2 1 -1 1 1 -0 2
0 -1 -1 1 0 -1 -2 -1 0 -0 -1 1 1 1 -1 -1 -1 -1 5 0 -1 2 -1 -0 1 1 -0 1 2 1 -0 -1 -0 1 1 -2 -0 1 4 -1 -1 0 0
-0 -1 -2 -0 1 -0 -1 -1 -0 -1 0 1 -1 -0 -1 -1 -2 -1 -1 0 -1 -3 -1 1 2 1 0 -1 1 -2 1 -1 1 2 1 2 0 -1 -1 -1 -1 1 -1
-0 -1 -1 -1 -0 0 0 -1 -1 -0 0 -1 -1 0 -0 -1 -1 0 -1 -1 -0 0 1 -3 0 0 -2 -0 0 -2 -0 -2 1 -1 -1 2 1 -3 -1 -1 -1 -1 -4
-0 -1 -2 -1 -0 0 0 -1 -1 -1 -1 1 -1 1 -1 -2 -1 -1 -3 -0 -0 -1 -1 0 1 0 3 2 -0 2 -1 -2 -1 -1 0 1 -1 -1 -1 -2 -1 -2 -3
-1 -0 -1 -1 -2 -1 -0 -0 0 0 1 0 -1 -1 -0 -2 -0 -3 -2 -1 -1 -1 2 -0 -1 3 -0 1 -0 -0 1 -0 0 1 1 -1 -1 -2 1 0 -0 -0 -1
-0 -1 -1 -0 -1 -1 -1 1 -1 -1 1 3 1 -0 -0 -1 -2 -2 -1 -0 -1 -1 -0 2 0 0 -0 1 -1 -2 -1 -2 -1 1 -1 0 -1 1 1 0 0 -1 -1
-0 0 -1 -1 -2 -2 1 -0 -1 -0 1 1 1 -0 1 -2 -0 -1 -3 -1 1 1 1 -0 0 -1 -1 -2 -1 2 0 -0 -0 -0 -3 -1 -3 0 -1 -0 -0 1 0
0 -1 -1 -1 -1 -2 -1 0 -1 -0 1 -1 -1 -0 1 -2 -2 -0 -3 -1 0 -0 1 0 -0 1 1 -0 -0 -1 -1 -2 1 -2 1 1 -1 -1 0 -2 0 -0 -0
1 -0 -1 -0 -0 -0 -1 -1 -1 -0 -0 -0 -3 -1 0 1 -1 -1 -1 -1 -2 0 1 1 -0 -0 -1 -1 0 -1 -0 -2 -3 -2 -1 1 -1 -0 -5 -0 -1 -1 -2
0 0 -2 -1 1 1 -2 -1 1 1 0 -1 -0 -2 -2 1 2 -1 -1 -3 -2 1 1 1 -1 -1 1 -2 0 0 -0 -1 0 -2 -1 -1 -3 -2 -2 -0 -5 -0 -2
-2 1 -2 -2 1 1 -0 -1 0 -0 -0 -0 -1 1 -1 -2 1 2 0 -2 0 1 -1 -0 2 -0 1 -1 0 -1 1 0 -1 -1 -2 -1 -1 -3 -4 -0 0 0 0
-0 0 0 -2 0 0 1 -1 0 -0 -2 -1 0 -1 -1 -2 -0 0 1 0 0 1 1 1 1 -1 -0 -2 -0 -1 -0 -0 -1 -2 -2 -1 -2 -2 -0 -0 0 0 -0
2 0 -1 -0 1 -0 1 -1 0 -0 -0 -0 -1 0 -2 1 -1 0 0 1 0 0 0 1 2 1 -1 1 -0 -1 -0 0 -1 -2 -1 -1 0 -1 -1 0 -2 0 -0
1 -1 1 -2 1 1 1 -0 0 2 -1 -2 -1 0 -0 -1 -2 -0 0 -1 -1 -1 -1 1 1 0 2 0 -0 -1 -2 -3 -1 -0 -2 -1 1 -3 -0 2 -1 -2 -1
-5 1 0 0 -4 2 -0 -0 0 0 -0 -0 -0 0 -1 0 -0 -2 -0 -0 -0 -1 -1 1 -0 -0 1 -1 -1 -1 -0 -1 -1 -1 -1 -1 -1 -0 -1 -0 0 -0 -0
3 -0 3 2 -5 -1 1 0 -1 2 1 1 -0 -0 0 0 0 -1 -1 -0 -1 0 1 -0 1 1 -0 1 -0 -1 0 0 1 -0 -0 -0 1 -0 -1 0 -0 0 -0
1 -0 5 -1 -2 0 3 -0 -1 1 -1 -1 -0 -1 0 2 1 -1 -0 0 -1 -1 0 1 -1 0 -0 0 1 1 -1 -3 1 -0 1 -0 1 1 -0 -2 -1 -1 -0
0 3 5 -0 0 -1 1 -1 -2 1 -1 -1 2 -1 -1 1 -0 1 -1 -0 0 -2 -1 1 -0 -0 0 1 1 1 -1 -2 -2 -3 -2 -0 1 1 -0 -1 -2 -1 -1
-2 4 -0 6 4 1 1 0 1 -1 -2 -0 1 2 -1 -1 0 0 -1 2 -1 -1 -2 1 -0 -0 1 1 1 1 0 -1 -0 2 1 -2 -2 -3 -0 0 -1 -1 -1
-1 -2 0 1 2 -0 0 3 2 -3 -2 -3 1 3 -0 -0 0 -1 1 1 1 -1 -1 -0 0 0 -1 -0 -1 -1 -1 -2 -0 -0 -1 0 1 1 -1 -2 -1 -1 -1
1 -2 1 4 6 5 -2 1 0 1 2 1 1 -1 1 2 1 -1 2 0 1 0 -0 -1 1 -1 -0 -0 1 -1 1 0 -2 -2 -1 -2 -0 -2 0 0 -1 -1 -0
-2 -1 2 4 3 -1 0 20 -1 -2 -6 -5 -0 2 1 2 1 0 0 1 2 0 -1 0 1 1 0 -0 1 1 -1 -0 -2 -0 -2 -1 -1 -3 -1 -1 -2 -1 -2
0 1 -0 2 -0 -4 -0 4 -3 2 -2 -1 -2 -1 0 -0 1 1 1 3 1 -0 0 2 1 1 -1 -1 0 -1 1 -0 -0 1 -0 -1 -1 -2 -1 -2 -2 -2 -1
-0 0 -1 3 1 1 0 2 2 0 -1 -0 1 0 0 1 -0 -0 0 1 1 -0 -1 1 0 0 -0 -1 -0 -1 -1 2 -0 0 2 -3 2 -1 -0 -3 -4 -1 -1
Height
5839 5840 5840 5842 5843 5845 5847 5850 5851 5851 5853 5854 5854 5855 5856 5857 5859 5860 5860 5862 5863 5864 5864 5865 5866 5866 5866 5866 5866 5866 5867 5867 5868 5868 5869 5870 5870 5870 5870 5869 5869 5869 5869
5839 5840 5840 5841 5843 5845 5847 5849 5850 5851 5853 5854 5854 5855 5855 5857 5858 5860 5861 5862 5863 5864 5865 5867 5866 5867 5868 5868 5868 5867 5867 5869 5870 5870 5870 5870 5871 5870 5870 5870 5870 5870 5869
5838 5840 5840 5841 5842 5844 5846 5848 5850 5851 5853 5854 5854 5855 5855 5856 5858 5860 5861 5863 5865 5865 5865 5866 5867 5868 5868 5868 5868 5869 5869 5870 5870 5870 5870 5872 5872 5872 5872 5871 5870 5870 5868
5836 5839 5840 5841 5841 5843 5845 5848 5849 5851 5852 5854 5854 5855 5856 5857 5857 5859 5861 5863 5864 5865 5865 5865 5867 5867 5868 5869 5868 5870 5869 5871 5871 5872 5872 5872 5871 5872 5871 5871 5869 5868 5868
5834 5837 5839 5840 5842 5843 5844 5847 5848 5850 5852 5853 5854 5855 5856 5857 5857 5858 5859 5862 5863 5865 5865 5866 5867 5868 5868 5868 5869 5870 5871 5871 5871 5871 5871 5871 5871 5871 5870 5869 5868 5869 5869
5831 5834 5837 5839 5841 5843 5844 5845 5847 5850 5851 5853 5854 5855 5856 5855 5855 5853 5857 5860 5862 5864 5865 5865 5866 5867 5868 5868 5869 5870 5871 5871 5871 5870 5870 5870 5869 5869 5869 5868 5867 5867 5866
5827 5831 5835 5838 5840 5841 5843 5845 5846 5849 5851 5853 5853 5855 5855 5856 5855 5854 5856 5859 5860 5862 5863 5865 5867 5868 5868 5869 5869 5869 5869 5869 5869 5870 5869 5869 5868 5867 5867 5867 5867 5866 5865
5825 5829 5832 5835 5837 5839 5841 5844 5846 5848 5850 5851 5853 5854 5855 5855 5855 5854 5856 5859 5860 5861 5863 5865 5866 5867 5867 5868 5869 5868 5869 5869 5869 5869 5869 5868 5867 5867 5866 5865 5865 5864 5863
5823 5826 5830 5832 5835 5838 5839 5842 5845 5847 5849 5849 5851 5853 5854 5854 5855 5855 5856 5859 5860 5861 5862 5864 5865 5865 5866 5866 5867 5867 5868 5869 5869 5869 5868 5868 5867 5866 5865 5864 5863 5862 5860
5820 5824 5826 5829 5832 5835 5837 5840 5843 5846 5847 5849 5849 5850 5853 5854 5854 5854 5855 5858 5859 5860 5862 5862 5864 5864 5865 5864 5866 5867 5867 5868 5868 5867 5866 5866 5866 5865 5864 5862 5861 5860 5858
5818 5821 5824 5826 5829 5833 5836 5838 5841 5844 5845 5847 5847 5848 5851 5852 5853 5854 5854 5855 5856 5859 5861 5862 5863 5864 5864 5864 5865 5865 5865 5865 5865 5864 5865 5865 5863 5863 5862 5860 5859 5858 5856
5816 5818 5821 5824 5827 5830 5833 5835 5839 5842 5843 5845 5846 5847 5849 5851 5852 5853 5853 5853 5855 5857 5859 5861 5861 5861 5863 5862 5863 5863 5864 5864 5864 5863 5863 5862 5861 5860 5859 5859 5857 5855 5854
5812 5815 5819 5822 5825 5828 5830 5833 5836 5839 5841 5842 5845 5845 5847 5849 5850 5850 5851 5852 5854 5856 5858 5859 5860 5861 5861 5861 5863 5862 5862 5862 5861 5861 5861 5860 5860 5860 5858 5856 5855 5853 5852
5809 5813 5817 5820 5822 5824 5828 5831 5833 5835 5838 5840 5842 5843 5844 5846 5848 5849 5849 5849 5851 5853 5855 5857 5858 5859 5860 5860 5861 5861 5861 5861 5861 5860 5860 5858 5858 5857 5855 5854 5853 5852 5850
5805 5810 5813 5817 5819 5822 5825 5828 5830 5832 5835 5837 5839 5839 5840 5843 5844 5846 5847 5847 5849 5850 5853 5854 5856 5858 5858 5858 5859 5859 5859 5859 5858 5858 5857 5857 5856 5855 5853 5853 5851 5850 5848
5802 5805 5809 5813 5816 5819 5822 5825 5827 5830 5830 5833 5835 5836 5837 5839 5840 5842 5844 5845 5846 5848 5851 5852 5854 5856 5857 5857 5857 5857 5857 5857 5857 5856 5855 5854 5853 5853 5851 5851 5850 5848 5846
5798 5802 5805 5810 5813 5815 5818 5821 5823 5827 5828 5829 5832 5833 5834 5836 5837 5839 5842 5843 5844 5846 5849 5851 5852 5853 5855 5855 5855 5856 5855 5854 5855 5853 5853 5852 5851 5850 5849 5848 5846 5845 5843
5795 5798 5803 5805 5809 5812 5815 5818 5820 5823 5826 5827 5828 5829 5831 5833 5835 5837 5840 5841 5843 5844 5846 5848 5850 5852 5852 5853 5853 5852 5852 5852 5852 5851 5851 5850 5849 5847 5846 5845 5843 5842 5840
5791 5794 5798 5801 5805 5809 5812 5814 5817 5820 5822 5824 5826 5827 5829 5830 5833 5835 5838 5840 5841 5843 5844 5845 5847 5848 5850 5850 5851 5850 5850 5849 5849 5849 5848 5847 5845 5844 5843 5842 5840 5838 5836
5787 5790 5793 5796 5800 5804 5808 5810 5813 5815 5818 5820 5823 5824 5826 5828 5831 5833 5836 5838 5840 5841 5842 5843 5844 5845 5847 5847 5847 5848 5848 5847 5846 5845 5845 5843 5842 5840 5839 5837 5836 5834 5832
5785 5787 5790 5791 5794 5800 5802 5806 5809 5812 5814 5816 5819 5822 5823 5825 5828 5831 5833 5835 5837 5838 5839 5840 5841 5842 5843 5844 5845 5845 5845 5844 5843 5843 5841 5840 5838 5837 5835 5833 5831 5829 5827
5781 5784 5787 5788 5790 5794 5798 5801 5804 5808 5810 5812 5815 5818 5820 5822 5824 5827 5829 5831 5833 5835 5836 5836 5837 5838 5839 5841 5841 5841 5841 5841 5839 5839 5838 5836 5835 5833 5831 5828 5826 5824 5822
5776 5780 5784 5785 5787 5790 5793 5795 5799 5804 5807 5809 5812 5815 5817 5818 5820 5823 5825 5828 5829 5831 5832 5834 5834 5835 5836 5837 5837 5837 5837 5836 5835 5834 5832 5831 5829 5827 5826 5824 5822 5820 5818
5773 5775 5778 5780 5783 5786 5788 5791 5795 5799 5802 5803 5806 5810 5812 5815 5816 5818 5821 5823 5825 5827 5828 5829 5831 5831 5833 5833 5833 5833 5832 5831 5830 5829 5826 5824 5823 5820 5819 5818 5817 5816 5815
5767 5771 5774 5777 5779 5782 5785 5788 5791 5794 5797 5799 5802 5805 5806 5808 5811 5813 5815 5818 5820 5822 5823 5825 5826 5827 5828 5829 5828 5827 5826 5825 5824 5822 5820 5817 5816 5815 5814 5812 5811 5810 5810
5763 5765 5768 5772 5775 5778 5780 5784 5786 5789 5791 5794 5796 5798 5800 5803 5805 5807 5809 5812 5815 5816 5818 5820 5821 5822 5822 5823 5823 5821 5820 5819 5817 5816 5815 5812 5811 5810 5809 5809 5807 5806 5805